Weather in Velikoye Selo

Russia / Novgorod Oblast     57°41′30″N   31°44′23″E
temp.,
°C
wind,
m/s
gust,
m/s
humid.,
%
clouds,
%
prec.,
mm/h
press.,
hPa
HPBL,
m
22 may, sun
sun2200:00+7ene412615 0.0 1008429
03:00+3ene311764 0.0 1009354
06:00+3ene310740 0.0 1009394
09:00+8ne46513 0.0 10091043
12:00+11ne46330 0.0 10091751
15:00+13nne46304 0.0 10092064
18:00+13nne46350 0.0 10091899
21:00+6n27580 0.0 1010126
23 may, mon
mon2300:00+2n210680 0.0 1011193
03:000n23750 0.0 101244
06:00+2nnw26675 0.0 1012149
09:00+9nnw374570 0.0 1011862
12:00+13nnw58425 0.0 10101635
15:00+14nnw594898 0.0 10101927
18:00+13nnw512579 0.0 10091422
21:00+9n397229 0.0 1010272
24 may, tue
tue2400:00+6wnw2588100 0.0 1010101
03:00+6wnw2993100 0.0 1010223
06:00+6nw269037 0.0 1011254
09:00+11nnw4837100 0.0 1011866
12:00+14nnw5103173 0.0 10111412
15:00+15nnw6925100 0.0 10121658
18:00+14n483290 0.0 10121156
21:00+7ne266582 0.0 1014138
25 may, wed
wed2500:00+5e1187100 0.0 101510
03:00+4ne009085 0.0 101610
06:00+5nne00860 0.0 101750
09:00+11n12580 0.0 1016738
12:00+15nnw23420 0.0 10151244
15:00+18nw34322 0.0 10141632
18:00+17n234098 0.0 1013985
21:00+11ese2262100 0.0 101213
26 may, thu
thu2600:00+8se226460 0.0 101129
03:00+8se256548 0.0 100982
06:00+9se2770100 0.0 1007163
09:00+12se3869100 0.0 1004322
12:00+11sse2593100 0.5 1002168
15:00+11wsw2598100 5.1 1001409
18:00+9wnw31097100 5.6 1002633
21:00+9wnw1298100 5.8 100265